星链-31510 (STARLINK-31510 )

导读

STARLINK-31510是美国SpaceX星链项目的低轨通信卫星,于北京时间2024年4月23日发射入轨。它运行在近地轨道,属于星链第二代星座组网卫星,配备激光通信终端,依托星链全球星座网络,可为全球尤其是偏远地区提供高速低时延的宽带互联网服务,同时支撑星链天地一体化通信网络的扩展,助力星座容量与覆盖能力的提升。

基本信息
目录编号:
59575
目录名称:
STARLINK-31510
国际标识:
2024-076M
轨道中心:
EARTH
卫星名称:
星链-31510
卫星全名:
星链-31510 (STARLINK-31510 )
卫星状态:
在轨 (已飞行786 天)
发射日期:
2024-04-23 UTC
国别 :
美国 (US)
星等 :
--
轨道信息
数据来源 国际轨道数据
星历时间: 2026-06-17T00:44:38+0800
1天前
查看轨道信息
半长轴: 6861.196km
偏心率: 0.0000827
轨道倾角: 43.000°
近地点辐角 273.241°
升交点赤经 166.489°
平近点角 86.834°
近地点: 482.491km
远地点: 483.627km
周期: 94.267分钟
每日圈数: 15.275767
详细信息
固有亮度:
5
最大亮度:
1.5
卫星平台:
Starlink v2.0 mini
覆盖范围:
全球
运营商:
太空探索技术公司
运营商所在国:
美国
制造商(研发单位):
太空探索技术公司
制造商所在国:
美国
使用方式:
暂无
卫星简介
星链(Starlink)计划是由太空探索技术公司(SpaceX)提出的一个巨型低轨卫星互联网星座项目,计划在2019年至2024年间在太空搭建由约1.2万颗卫星组成的“星链”网络,其中1584颗将部署在地球上空550千米处的近地轨道,并从2020年开始工作。该卫星仍在工作。
2D轨道图
3D轨道图
轨道高度分析图
轨道倾角分析图
轨道综合分析图
查看轨道综合分析图